Flag for U.S.A. Weather past 2 weeks in Kailua-Kona, Hawaii, U.S.A.

Now
87 °F

Scattered clouds.


Feels Like: 94 °F
Forecast: 71 / 80 °F
Wind: 12 mph from Southwest

Location: Keahole Airport

Current Time: Aug 20, 2014 at 1:20:22 PM

Latest Report: Aug 20, 2014 at 12:53 PM


Visibility: 10 mi

Pressure: 29.94 "Hg

Humidity: 61%

Dew point: 72 °F

Location of Kailua-KonaLocation

Historic Weather in Kailua-Kona — Graph

°F

Kailua-Kona temperature yesterday

Maximum temperature yesterday: 86 °F (at 10:53 AM)
Minimum temperature yesterday: 74 °F (at 5:53 AM)
Average temperature yesterday: 81 °F

Past Weeks' High & Low Weather Summary

 TemperatureHumidityPressure
High94 °F (Aug 7, 1:53 PM)89% (Aug 8, 6:26 AM)30.04 "Hg (Aug 8, 6:26 AM)
Low73 °F (Aug 15, 5:53 AM)41% (Aug 7, 1:53 PM)29.78 "Hg (Aug 8, 2:53 AM)
Average81 °F69%29.94 "Hg
* Reported Aug 5 11:53 AM — Aug 20 11:53 AM, Kailua-Kona, Weather by CustomWeather, © 2014

Note: Actual official high and low records may vary slightly from our data, if they occured in-between our weather recording intervals... More about our weather records

Advertising

Kailua-Kona weather history for previous 24 hours

 ConditionsComfort  
Time TempWeatherWind HumidityBarometerVisibility
11:53 AM
Aug 20
85 °FSunny.12 mph63%29.96 "Hg10 mi
10:53 AM85 °FSunny.10 mph65%29.98 "Hg10 mi
9:53 AM84 °FSunny.10 mph61%29.97 "Hg10 mi
8:53 AM83 °FSunny.9 mph63%29.96 "Hg10 mi
7:53 AM81 °FSunny.3 mph62%29.96 "Hg10 mi
6:53 AM76 °FSunny.3 mph74%29.94 "Hg10 mi
5:53 AM74 °FClear.No wind79%29.92 "Hg10 mi
4:53 AM76 °FPassing clouds.No wind74%29.91 "Hg10 mi
3:53 AM76 °FOvercast.3 mph74%29.91 "Hg10 mi
2:53 AM77 °FOvercast.6 mph77%29.91 "Hg10 mi
1:53 AM77 °FOvercast.7 mph77%29.92 "Hg10 mi
12:53 AM78 °FMostly cloudy.5 mph64%29.94 "Hg10 mi
11:53 PM
Aug 19
79 °FPassing clouds.3 mph58%29.96 "Hg10 mi
10:53 PM79 °FPassing clouds.3 mph62%29.96 "Hg10 mi
9:53 PM79 °FOvercast.5 mph77%29.96 "Hg10 mi
9:09 PM81 °FMostly cloudy.6 mph74%29.95 "Hg10 mi
8:53 PM81 °FMostly cloudy.6 mph72%29.94 "Hg10 mi
7:53 PM81 °FOvercast.5 mph72%29.91 "Hg10 mi
6:53 PM81 °FMostly cloudy.6 mph72%29.90 "Hg10 mi
5:53 PM82 °FLight rain. Overcast.13 mph70%29.88 "Hg10 mi
4:53 PM83 °FOvercast.13 mph68%29.87 "Hg10 mi
3:53 PM84 °FPartly sunny.12 mph65%29.87 "Hg10 mi
2:53 PM85 °FScattered clouds.13 mph61%29.87 "Hg10 mi
2:01 PM84 °FScattered clouds.13 mph62%29.89 "Hg10 mi
1:53 PM85 °FPartly sunny.12 mph63%29.89 "Hg10 mi
1:43 PM84 °FPartly sunny.13 mph66%29.89 "Hg10 mi
Weather by CustomWeather, © 2014

See weather overviewHow to use our weather pages